Wind_Speed
14 16 15 15 16 16 14 14 16 17 16 17 18 19 20 20 20 21 21 20 20 21 21 20 19 19 19 19 19 20 20 20 19 18 19 20 20 20 20 20 19 19 19 20
16 16 14 15 16 15 14 16 17 17 17 18 18 18 19 21 21 20 21 22 22 21 21 20 19 19 19 19 20 20 21 21 20 19 20 20 20 20 20 20 20 20 21 22
17 15 15 15 15 16 16 16 18 19 18 18 18 18 18 21 21 19 20 21 21 20 20 19 19 19 20 20 21 21 21 21 20 20 21 21 21 21 21 20 21 22 22 23
17 16 16 17 17 17 18 17 18 19 18 19 20 20 19 21 22 20 20 21 21 20 20 19 19 20 21 21 21 20 21 22 21 21 22 22 22 22 22 22 23 23 23 24
16 15 17 18 18 18 18 17 18 17 18 20 21 21 18 20 21 21 22 22 21 21 21 21 21 20 21 21 21 21 22 22 21 22 23 23 23 22 23 23 23 23 23 24
16 16 17 18 19 19 18 17 18 17 19 22 20 20 20 19 19 21 22 23 21 21 21 22 22 22 21 22 22 22 22 22 22 22 23 24 23 23 23 23 23 23 24 24
16 17 18 18 18 18 18 18 18 18 18 20 19 19 20 20 20 21 21 22 22 22 22 22 23 23 22 22 23 23 23 23 23 23 23 23 23 22 22 22 22 23 24 25
16 17 17 18 18 17 17 17 18 18 18 18 18 20 21 21 20 20 20 20 21 22 22 23 23 23 23 23 24 23 23 23 24 23 23 23 22 22 22 23 24 24 24 25
18 18 17 19 18 19 18 18 18 19 19 20 19 20 21 21 20 20 21 22 23 22 22 23 23 24 23 24 24 23 23 23 24 23 23 22 22 23 23 24 24 24 24 25
19 19 17 17 17 18 19 18 18 18 19 19 19 19 20 22 23 23 24 25 26 24 23 23 23 24 23 23 24 23 23 24 23 23 23 22 23 24 24 24 24 24 24 24
20 21 19 18 18 17 19 20 19 19 19 19 20 20 20 22 23 25 26 27 25 23 23 24 24 23 23 23 23 24 24 23 23 22 22 22 23 23 24 24 24 25 25 24
19 21 21 19 18 19 21 20 19 21 21 20 21 23 21 23 25 25 27 27 26 25 24 24 24 23 23 23 23 23 23 22 22 22 22 22 23 24 25 25 25 25 25 25
21 22 21 19 20 20 20 19 19 21 21 21 22 23 23 24 25 24 25 26 26 25 24 24 23 23 23 22 22 22 22 21 22 22 23 23 24 24 25 25 25 25 25 25
23 23 22 21 19 20 21 19 20 21 21 22 22 22 23 23 24 24 24 24 25 25 24 23 22 22 23 22 22 22 22 22 22 22 23 23 24 24 24 24 24 24 25 25
25 25 24 22 21 22 23 21 22 22 22 22 23 23 23 25 24 24 24 24 24 23 24 23 22 23 23 23 22 22 22 22 22 22 23 24 24 24 24 24 25 25 26 26
26 25 24 23 22 22 23 22 22 22 22 23 24 25 24 25 25 24 24 24 23 23 24 24 23 23 23 23 22 22 22 22 23 23 23 24 24 24 25 25 25 26 26 26
25 24 25 24 21 22 24 22 22 23 24 24 25 26 26 26 25 24 23 24 23 24 23 23 23 23 23 23 22 22 23 23 23 24 24 25 25 25 26 25 26 26 26 26
24 24 24 24 22 24 22 21 22 24 26 25 24 25 26 26 25 25 25 25 24 24 23 24 24 23 23 23 23 23 23 24 24 24 24 24 25 26 26 26 26 26 26 27
24 24 24 24 23 23 21 21 22 24 25 25 25 25 25 26 26 25 24 24 24 24 24 24 25 24 24 23 23 23 24 23 24 24 25 25 26 27 26 26 26 26 27 27
24 24 24 24 24 24 23 23 23 24 26 26 26 26 26 27 26 26 24 24 25 25 25 25 25 24 23 23 23 24 23 23 24 25 25 26 27 27 27 27 27 27 27 27
24 25 26 25 26 26 26 25 24 25 26 26 27 28 28 27 26 25 25 25 26 26 25 25 25 24 23 23 23 23 23 23 24 25 26 27 28 28 27 27 28 28 27 27
24 25 26 27 28 27 26 27 27 27 26 26 27 27 27 27 26 26 26 25 26 26 25 24 24 24 23 24 24 24 23 24 25 26 27 28 28 28 28 28 28 28 27 27
24 26 27 28 30 30 29 28 28 28 27 27 27 27 27 27 27 26 25 25 24 24 24 25 25 25 24 24 24 24 24 25 25 27 27 27 27 27 28 28 29 29 28 28
26 28 29 30 30 30 30 30 30 29 28 28 28 28 28 28 28 26 26 24 24 24 24 25 25 25 24 23 23 24 24 25 25 26 26 26 26 27 28 28 29 28 28 28
28 30 31 31 30 30 29 30 29 29 28 28 28 29 29 28 27 27 26 25 24 24 25 25 26 25 24 23 24 25 25 25 26 26 26 27 27 28 28 29 29 28 28 28
31 30 31 32 32 32 31 31 30 29 28 27 28 29 29 28 28 27 26 26 26 25 26 26 26 25 25 25 25 25 25 26 26 26 26 27 28 29 30 30 30 28 28 27
Wind_Direction
244 246 249 254 259 262 263 266 270 273 276 278 280 281 285 287 288 290 293 294 291 293 296 299 301 303 303 302 303 304 305 304 301 300 298 296 294 293 293 292 292 291 292 291
243 249 255 255 260 263 265 269 272 269 271 276 278 279 284 285 287 289 291 291 292 290 294 299 301 303 303 302 303 304 304 303 302 300 300 298 294 292 291 290 290 292 292 292
246 251 256 256 260 261 261 265 272 276 276 276 280 281 280 287 293 293 294 290 288 294 296 297 298 299 301 302 301 303 304 303 301 300 301 300 297 293 292 291 290 290 292 293
247 246 252 256 260 263 265 268 273 278 281 283 280 279 282 289 294 293 293 294 295 298 299 299 299 299 299 300 300 300 302 302 302 301 302 301 300 298 294 291 291 290 291 292
249 248 250 253 257 259 266 271 273 278 277 277 276 275 279 289 294 296 295 294 296 297 297 299 298 297 297 299 300 300 300 300 301 301 301 301 301 298 295 294 292 292 293 292
249 250 256 258 258 259 264 270 275 280 278 278 281 277 278 282 289 293 294 295 296 294 295 295 296 297 296 296 297 298 296 296 298 298 299 301 301 300 297 294 292 292 291 291
253 254 256 258 255 260 264 268 275 278 280 284 288 282 277 285 286 288 292 293 294 293 294 293 294 295 295 296 297 296 297 296 297 298 299 299 299 299 299 298 295 294 293 292
254 253 254 258 260 259 260 264 268 275 280 285 289 286 285 287 286 289 290 293 295 293 290 291 292 293 294 295 295 295 295 295 298 298 297 297 297 299 299 297 295 295 297 296
253 255 252 257 260 258 255 254 260 270 278 283 284 284 287 288 289 291 292 297 297 294 293 291 292 293 294 293 294 295 295 294 295 295 294 295 296 297 298 297 296 295 297 297
249 255 252 254 256 258 257 257 260 262 269 278 283 282 283 290 290 292 295 295 294 295 297 298 297 296 295 293 294 294 294 294 293 293 293 293 296 298 298 298 297 296 296 297
249 253 251 249 248 255 259 258 259 261 265 270 278 280 286 288 289 291 291 292 293 294 298 299 297 298 298 297 296 297 296 296 294 294 294 293 295 297 298 299 299 297 297 297
251 254 257 254 254 255 256 255 258 263 265 268 272 280 284 286 288 290 290 292 295 295 295 296 297 299 299 298 297 298 298 297 293 293 293 293 295 296 297 298 298 298 297 296
254 257 258 254 253 253 255 258 256 261 267 272 274 280 286 288 289 287 287 289 292 292 292 293 295 297 297 295 294 296 297 297 295 293 292 295 297 298 298 298 298 298 297 295
254 258 259 258 256 255 256 255 255 258 263 270 274 278 282 285 286 287 288 291 294 296 294 292 294 296 297 297 296 295 295 295 294 295 295 296 298 300 299 299 300 299 298 296
254 258 261 261 258 257 258 259 257 257 261 268 274 276 279 284 283 285 290 294 297 296 296 295 296 298 299 299 298 295 295 294 295 296 297 297 298 299 300 300 301 300 299 297
255 260 262 262 260 258 260 259 261 262 262 267 271 273 280 280 282 286 287 293 298 296 298 298 299 300 301 300 298 296 296 295 295 297 297 297 299 299 299 298 298 299 299 299
258 262 263 262 260 259 259 260 264 267 266 266 268 272 275 279 281 282 287 291 293 295 300 301 300 300 300 300 298 296 297 297 297 297 298 298 299 299 298 297 297 297 299 300
259 262 264 264 263 260 265 266 264 264 266 266 268 273 275 277 279 280 283 285 290 294 297 299 301 301 301 299 296 295 296 297 298 298 298 298 300 300 300 299 299 299 300 301
262 263 264 266 264 262 262 264 264 263 264 266 270 273 274 275 280 282 284 286 287 290 294 296 297 298 299 297 295 296 295 296 297 298 298 300 302 303 302 302 303 303 303 302
258 260 262 266 265 265 264 260 261 261 261 265 270 272 274 276 278 282 285 287 288 288 290 292 295 297 297 294 294 295 294 296 297 299 300 302 303 303 303 303 304 304 303 303
253 257 260 262 264 265 264 264 265 264 264 269 271 272 272 275 277 280 283 285 288 288 289 291 293 295 294 293 293 292 294 295 297 299 300 301 302 302 302 303 304 303 303 303
252 255 259 262 262 261 261 264 264 266 270 271 273 275 275 276 278 280 282 285 285 287 289 291 292 294 294 293 293 291 293 295 297 299 301 301 301 302 302 302 303 303 303 304
252 255 257 260 263 266 264 266 268 269 271 272 275 276 275 276 278 282 284 286 285 285 288 291 292 292 292 293 294 295 295 296 297 299 300 301 302 304 305 305 304 303 301 302
250 253 255 260 265 266 266 265 268 270 271 272 275 276 275 277 279 281 282 283 284 285 287 290 292 290 288 290 293 296 298 300 301 302 303 303 305 305 306 307 306 304 302 300
253 252 254 258 263 264 266 269 271 274 273 274 275 276 276 275 276 278 280 282 284 286 287 288 290 290 289 291 293 295 296 299 302 303 304 305 307 307 308 309 309 306 303 300
256 256 256 259 263 266 268 270 270 272 275 275 275 275 275 275 277 278 279 281 283 285 286 288 288 287 288 290 293 294 297 299 300 301 304 305 307 307 308 309 308 306 304 302
Height
5865 5867 5868 5870 5871 5873 5873 5874 5874 5875 5874 5873 5871 5870 5869 5866 5865 5862 5860 5859 5858 5857 5855 5853 5852 5851 5849 5848 5847 5846 5844 5842 5841 5839 5838 5837 5836 5834 5833 5832 5831 5830 5829 5828
5863 5864 5867 5868 5868 5869 5869 5870 5870 5870 5869 5869 5867 5866 5865 5862 5860 5858 5857 5855 5854 5853 5851 5850 5848 5847 5846 5845 5844 5842 5841 5839 5837 5836 5834 5833 5831 5829 5828 5827 5827 5826 5825 5824
5859 5863 5864 5864 5865 5865 5865 5867 5867 5866 5866 5865 5863 5862 5861 5858 5856 5855 5853 5851 5851 5849 5848 5847 5845 5844 5842 5841 5840 5839 5837 5835 5833 5832 5830 5828 5826 5825 5824 5823 5822 5821 5820 5818
5856 5859 5860 5860 5861 5862 5862 5863 5863 5862 5861 5860 5860 5857 5857 5855 5853 5851 5850 5848 5847 5846 5844 5843 5842 5840 5839 5838 5836 5835 5833 5831 5829 5828 5826 5824 5822 5821 5820 5818 5817 5816 5814 5813
5852 5855 5856 5857 5858 5859 5859 5859 5858 5857 5857 5855 5854 5852 5852 5852 5849 5848 5846 5845 5843 5842 5841 5839 5838 5836 5835 5833 5832 5830 5829 5827 5825 5823 5821 5819 5818 5816 5814 5813 5811 5810 5809 5807
5849 5851 5852 5853 5854 5854 5854 5855 5854 5853 5852 5851 5851 5849 5847 5847 5846 5845 5844 5841 5839 5838 5837 5835 5833 5832 5830 5829 5827 5826 5824 5822 5821 5819 5817 5815 5813 5811 5809 5808 5806 5805 5804 5802
5845 5846 5847 5847 5849 5850 5851 5851 5850 5849 5848 5847 5846 5845 5844 5843 5843 5842 5840 5838 5836 5834 5833 5831 5829 5828 5826 5824 5823 5821 5819 5818 5816 5814 5812 5810 5808 5806 5805 5803 5802 5800 5799 5797
5841 5843 5844 5844 5845 5846 5846 5847 5847 5846 5845 5845 5843 5842 5840 5839 5838 5836 5835 5833 5831 5829 5828 5826 5824 5823 5821 5819 5818 5816 5814 5813 5811 5809 5807 5805 5803 5802 5800 5798 5796 5795 5793 5791
5837 5838 5839 5840 5840 5841 5841 5842 5844 5843 5841 5841 5839 5838 5836 5834 5833 5832 5831 5828 5825 5824 5822 5821 5819 5818 5816 5814 5812 5811 5809 5807 5805 5804 5802 5800 5799 5797 5795 5793 5791 5790 5788 5786
5832 5833 5835 5836 5836 5836 5837 5838 5839 5838 5837 5836 5836 5834 5832 5830 5829 5828 5826 5824 5821 5820 5818 5816 5814 5813 5811 5809 5807 5805 5804 5801 5799 5798 5796 5795 5794 5792 5789 5788 5786 5784 5782 5780
5828 5828 5830 5831 5831 5832 5833 5833 5833 5833 5833 5832 5831 5831 5828 5826 5826 5824 5822 5819 5817 5815 5814 5811 5809 5807 5806 5804 5802 5800 5798 5796 5794 5792 5791 5790 5788 5786 5784 5782 5780 5778 5776 5774
5822 5822 5823 5825 5827 5827 5828 5828 5829 5828 5827 5826 5826 5826 5823 5822 5821 5820 5817 5814 5812 5810 5808 5806 5804 5802 5801 5799 5796 5794 5792 5790 5788 5787 5786 5784 5782 5781 5779 5777 5774 5772 5770 5768
5816 5817 5818 5820 5823 5822 5821 5823 5823 5824 5823 5822 5821 5822 5819 5817 5814 5813 5811 5808 5806 5805 5803 5801 5799 5797 5795 5793 5791 5789 5788 5785 5783 5782 5781 5779 5777 5775 5773 5771 5769 5766 5764 5762
5811 5811 5813 5814 5816 5817 5816 5817 5818 5818 5817 5817 5816 5816 5813 5811 5809 5806 5804 5802 5800 5799 5797 5795 5793 5792 5790 5788 5785 5784 5783 5781 5779 5777 5775 5774 5772 5770 5768 5765 5763 5761 5758 5756
5805 5805 5806 5808 5809 5810 5811 5812 5813 5813 5812 5812 5811 5810 5809 5806 5804 5801 5799 5797 5796 5794 5792 5790 5788 5786 5784 5783 5781 5780 5778 5776 5774 5772 5770 5768 5766 5764 5762 5760 5757 5755 5753 5750
5798 5800 5801 5802 5803 5803 5803 5805 5806 5806 5806 5806 5805 5804 5802 5801 5799 5797 5795 5793 5791 5789 5787 5785 5783 5781 5779 5778 5776 5775 5773 5771 5769 5767 5765 5762 5760 5758 5756 5754 5751 5749 5747 5744
5792 5794 5795 5795 5797 5797 5797 5800 5800 5800 5799 5800 5799 5798 5796 5795 5793 5792 5790 5789 5787 5785 5782 5780 5778 5777 5775 5773 5771 5770 5768 5766 5764 5762 5759 5757 5754 5752 5750 5748 5745 5743 5740 5737
5787 5787 5788 5789 5791 5790 5794 5794 5794 5794 5792 5792 5791 5790 5790 5788 5787 5786 5785 5784 5782 5780 5778 5776 5773 5771 5770 5768 5766 5764 5763 5761 5759 5756 5754 5751 5749 5746 5744 5741 5739 5736 5733 5731
5781 5781 5782 5782 5783 5784 5786 5786 5787 5786 5785 5784 5784 5784 5783 5782 5780 5779 5779 5777 5776 5775 5773 5771 5769 5767 5764 5762 5760 5759 5757 5755 5753 5751 5748 5746 5743 5741 5738 5735 5732 5729 5726 5724
5774 5775 5776 5776 5776 5777 5779 5778 5778 5779 5777 5777 5777 5777 5776 5775 5775 5774 5773 5772 5770 5769 5767 5766 5763 5761 5759 5757 5755 5753 5751 5749 5747 5745 5743 5740 5738 5735 5732 5729 5726 5722 5719 5717
5767 5768 5769 5769 5769 5770 5771 5771 5771 5772 5770 5770 5769 5769 5769 5768 5768 5767 5766 5765 5763 5762 5760 5759 5757 5755 5753 5751 5750 5748 5745 5743 5741 5739 5737 5734 5731 5728 5725 5722 5719 5716 5713 5710
5760 5762 5763 5763 5763 5765 5764 5764 5764 5764 5763 5763 5763 5762 5761 5761 5760 5760 5758 5757 5756 5755 5754 5752 5751 5749 5747 5745 5744 5742 5739 5737 5735 5733 5730 5727 5725 5721 5718 5715 5712 5709 5706 5703
5753 5755 5755 5756 5756 5756 5756 5756 5756 5756 5756 5757 5757 5756 5755 5755 5754 5752 5751 5750 5749 5749 5747 5746 5744 5743 5741 5739 5737 5735 5733 5731 5729 5726 5724 5721 5718 5715 5711 5708 5705 5701 5698 5695
5745 5746 5747 5747 5747 5747 5748 5748 5749 5750 5750 5750 5750 5749 5748 5748 5747 5745 5744 5743 5743 5742 5741 5739 5738 5736 5734 5732 5731 5729 5727 5724 5722 5720 5717 5714 5711 5708 5704 5701 5697 5694 5690 5688
5737 5738 5739 5740 5740 5739 5740 5741 5742 5742 5742 5741 5742 5741 5741 5740 5739 5738 5738 5737 5736 5735 5734 5732 5731 5729 5727 5726 5724 5722 5720 5718 5716 5713 5710 5707 5704 5701 5697 5693 5689 5686 5683 5679
5730 5730 5731 5732 5732 5732 5732 5733 5734 5734 5733 5733 5734 5733 5733 5732 5731 5731 5730 5729 5728 5728 5726 5725 5723 5722 5720 5719 5717 5715 5713 5711 5708 5706 5703 5700 5697 5693 5689 5686 5682 5678 5674 5671